Tracking 19720 objects as of 26-Jun-2019
HD Live streaming from Space Station
objects crossing your sky now

SL-8 DEB *

Track SL-8 DEB * now!
10-day predictions


NORAD ID: 18519
Int'l Code: 1984-019D
Perigee: 697.5 km
Apogee: 710.6 km
Inclination: 74.0 °
Period: 98.7 minutes
Semi major axis: 7075 km
RCS: 0.0063 m2 (small)
Launch date: February 21, 1984
Source: Commonwealth of Independent States (former USSR) (CIS)
Launch site: PLESETSK MISSILE AND SPACE COMPLEX (PKMTR)

Note: This is SATELLITE DEBRIS
aabbcc
Your satellite tracking list
Your tracking list is empty




NASA's NSSDC Master Catalog

Two Line Element Set (TLE):
1 18519U 84019D   19176.73065220  .00000196  00000-0  48224-4 0  9995
2 18519  74.0445 145.7214 0009265 103.0534 257.1666 14.58852756688884
Source of the keplerian elements: AFSPC